Weather Roundup
Issued by NWS Springfield, MO

Home | Current Version | Previous Version | Text Only | Print | Product List | Glossary On
Versions: 1 2 3 4 5 6 7 8 9 10 11 12 13 14 15 16 17 18 19 20 21 22 23 24 25 26 27 28 29 30 31 32 33 34 35 36 37 38 39 40 41 42 43 44 45 46 47 48 49 50
320
NZUS99 KSGF 210707
HRRSGF

HOURLY WEATHER
NATIONAL WEATHER SERVICE SPRINGFIELD MO
200 AM CDT MON AUG 21 2017

......SGF CWA......

CITY           SKY/WX    TMP DP  RH WIND       PRES   REMARKS
SPRINGFIELD    CLEAR     71  70  96 S12       30.08F
JOPLIN         CLOUDY    77  71  82 SE9       30.06F
WEST PLAINS    CLEAR     75  71  87 S7        30.12F
ROLLA          PTCLDY    74  72  93 S7        30.09F
OSAGE BEACH    CLOUDY    71  68  90 SE5       30.06F
BRANSON        CLEAR     73  72  94 S6        30.11F

......SURROUNDING SGF CWA......

CITY           SKY/WX    TMP DP  RH WIND       PRES   REMARKS
CHANUTE        CLOUDY    76  72  87 E5        30.04F
PARSONS        PTCLDY    79  73  82 VRB3      30.05F
COFFEYVILLE    MOCLDY    79  74  84 S7        30.03F
EMPORIA        CLOUDY    77  72  84 S13       30.01F
GROVE OK       CLEAR     77  73  88 CALM      30.08S
ROGERS AR      CLEAR     76  72  87 SE6       30.12F
SILOAM SPRINGS CLEAR     73  66  78 S6        30.10F
HARRISON AR    CLEAR     73  72  96 S3        30.12F
NEAR YELLVILLE CLEAR     73  66  78 CALM      30.07F

......KANSAS AND MISSOURI......

CITY           SKY/WX    TMP DP  RH WIND       PRES   REMARKS
KANSAS CTY INT PTCLDY    74  67  78 S10       29.99F
DOWNTOWN KC    CLOUDY    80  70  71 SW9       29.98F
COLUMBIA       CLOUDY    72  71  97 CALM      30.04F
SEDALIA        PTCLDY    70  67  90 S9        30.04F
ST JOSEPH      CLEAR     77  70  79 S12       29.96F
ST LOUIS       CLOUDY    80  74  81 S7        30.07F
SPIRIT OF STL  CLOUDY    74  73  97 CALM      30.05F
KIRKSVILLE     CLOUDY    68  65  90 S6        30.04R
WICHITA        CLOUDY    79  73  82 S14       30.02S
TOPEKA         CLEAR     77  73  87 S6        29.99F
OLATHE         PTCLDY    74  68  81 S12       30.01F

......TENNESSEE......

CITY           SKY/WX    TMP DP  RH WIND       PRES   REMARKS
MEMPHIS        CLEAR     78  73  84 CALM      30.09S
NASHVILLE      PTCLDY    74  69  85 SE3       30.12F

......ARKANSAS.......

CITY           SKY/WX    TMP DP  RH WIND       PRES   REMARKS
FAYETTEVILLE   CLEAR     71  71 100 SW5       30.12F
FT SMITH       CLEAR     75  73  93 E3        30.07S
LITTLE ROCK    PTCLDY    78  77  96 CALM      30.09R

......OKLAHOMA.......

CITY           SKY/WX    TMP DP  RH WIND       PRES   REMARKS
TULSA          PTCLDY    82  76  81 SE7       30.03S
PONCA CITY     CLOUDY    82  72  71 S8        30.03S
MCALESTER      CLOUDY    81  72  74 SE7       30.07F
OKLAHOMA CITY  PTCLDY    76  71  85 S8        30.05S

......IOWA............

CITY           SKY/WX    TMP DP  RH WIND       PRES   REMARKS
DES MOINES     CLOUDY    73  64  73 VRB5      30.01R THUNDER
QUAD CITIES    FOG       67  65  93 CALM      30.00S VSB 1/2

......ILLINOIS........

CITY           SKY/WX    TMP DP  RH WIND       PRES   REMARKS
QUINCY         CLOUDY    72  68  87 S6        30.03F
CHICAGO        CLOUDY    74  69  85 S9        30.03F




USA.gov is the U.S. government's official web portal to all federal, state and local government web resources and services.